Date String (YYYY-MM-DD hh:mm:ss) UTC,Instrument flags,Ambient pressure (hPa),Sample flow (lpm),Bypass flow (lpm),Sample temperature (°C),Ambient temperature (°C),ASC tube jacket temperature (°C),LED temperature (°C),Box temperature (°C),Sample RH (%),Span deviation,Mass concentration (μg/m³),Mass concentration (μg/m³),Mass concentration (μg/m³)
DateTimeUTC,F1_M11,P_M11,Q1_M11,Q2_M11,T1_M11,T2_M11,T3_M11,T4_M11,T5_M11,U1_M11,ZSPAN_M11,X0_M11,X2_M11,X1_M11
2021-12-11 23:00:00,,0820.8,5.00,0.00,22.3,21.4,00.0,31.4,24.1,06.6,0000.0,0003.24,0001.56,0001.03
2021-12-11 23:01:00,,0820.6,5.01,0.00,22.3,21.4,00.0,31.4,24.0,06.6,0000.0,0003.45,0001.61,0001.04
2021-12-11 23:02:00,,0820.5,5.01,0.00,22.3,21.4,00.0,31.4,24.0,06.6,0000.0,0003.44,0001.62,0001.06
2021-12-11 23:03:00,,0820.5,5.01,0.00,22.3,21.3,00.0,31.4,24.0,06.7,0000.0,0003.57,0001.65,0001.07
2021-12-11 23:04:00,,0820.5,5.00,0.00,22.3,21.3,00.0,31.4,24.0,06.6,0000.0,0003.76,0001.68,0001.07
2021-12-11 23:05:00,,0820.6,4.99,0.00,22.3,21.3,00.0,31.4,24.0,06.6,0000.0,0003.70,0001.68,0001.07
2021-12-11 23:06:00,,0820.6,5.02,0.00,22.3,21.3,00.0,31.4,24.0,06.6,0000.0,0003.54,0001.66,0001.07
2021-12-11 23:07:00,,0820.4,4.99,0.00,22.3,21.3,00.0,31.4,24.0,06.7,0000.0,0003.88,0001.65,0001.07
2021-12-11 23:08:00,,0820.3,5.00,0.00,22.3,21.9,00.0,31.4,24.2,06.7,0000.0,0003.98,0001.68,0001.07
2021-12-11 23:09:00,,0820.3,5.01,0.00,22.5,22.7,00.0,31.4,24.5,06.7,0000.0,0004.09,0001.72,0001.07
2021-12-11 23:10:00,,0820.4,5.00,0.00,22.6,22.9,00.0,31.5,24.6,06.7,0000.0,0004.94,0001.77,0001.07
2021-12-11 23:11:00,,0820.4,5.00,0.00,22.6,22.7,00.0,31.5,24.6,06.7,0000.0,0005.14,0001.75,0001.09
2021-12-11 23:12:00,,0820.2,4.99,0.00,22.6,22.5,00.0,31.5,24.5,06.7,0000.0,0005.03,0001.75,0001.09
2021-12-11 23:13:00,,0820.4,5.00,0.00,22.6,22.3,00.0,31.5,24.5,06.7,0000.0,0005.05,0001.75,0001.09
2021-12-11 23:14:00,,0820.6,5.00,0.00,22.6,22.1,00.0,31.5,24.4,06.7,0000.0,0005.05,0001.77,0001.10
2021-12-11 23:15:00,,0820.6,5.02,0.00,22.6,22.0,00.0,31.5,24.3,06.7,0000.0,0004.88,0001.74,0001.10
2021-12-11 23:16:00,,0820.2,5.00,0.00,22.6,21.9,00.0,31.5,24.3,06.7,0000.0,0005.09,0001.78,0001.10
2021-12-11 23:17:00,,0820.5,5.00,0.00,22.6,21.8,00.0,31.5,24.3,06.7,0000.0,0005.43,0001.86,0001.11
2021-12-11 23:18:00,,0820.5,5.01,0.00,22.5,21.7,00.0,31.5,24.3,06.7,0000.0,0006.02,0001.93,0001.12
2021-12-11 23:19:00,,0820.5,4.99,0.00,22.5,21.6,00.0,31.5,24.2,06.7,0000.0,0007.58,0002.03,0001.13
2021-12-11 23:20:00,,0820.6,5.01,0.00,22.5,21.5,00.0,31.5,24.2,06.7,0000.0,0008.01,0002.19,0001.14
2021-12-11 23:21:00,,0820.6,5.00,0.00,22.5,21.5,00.0,31.5,24.1,06.7,0000.0,0007.79,0002.22,0001.16
2021-12-11 23:22:00,,0820.3,4.99,0.00,22.4,21.5,00.0,31.5,24.0,06.7,0000.0,0007.89,0002.24,0001.17
2021-12-11 23:23:00,,0820.3,5.01,0.00,22.4,21.4,00.0,31.5,24.1,06.8,0000.0,0008.87,0002.27,0001.17
2021-12-11 23:24:00,,0820.6,5.00,0.00,22.4,21.4,00.0,31.4,24.1,06.8,0000.0,0010.25,0002.32,0001.19
2021-12-11 23:25:00,,0820.6,5.00,0.00,22.3,21.3,00.0,31.4,24.0,06.8,0000.0,0011.03,0002.35,0001.20
2021-12-11 23:26:00,,0820.4,5.00,0.00,22.3,21.3,00.0,31.4,24.0,06.8,0000.0,0011.08,0002.34,0001.21
2021-12-11 23:27:00,,0820.4,5.00,0.00,22.3,21.3,00.0,31.4,23.9,06.8,0000.0,0011.09,0002.35,0001.23
2021-12-11 23:28:00,,0820.4,5.01,0.00,22.3,21.2,00.0,31.4,23.9,06.8,0000.0,0011.81,0002.34,0001.23
2021-12-11 23:29:00,,0820.3,4.98,0.00,22.2,21.1,00.0,31.4,23.9,06.8,0000.0,0011.34,0002.35,0001.25
2021-12-11 23:30:00,,0820.3,5.01,0.00,22.2,21.3,00.0,31.4,23.9,06.8,0000.0,0010.94,0002.25,0001.25
2021-12-11 23:31:00,,0820.2,4.99,0.00,22.3,22.1,00.0,31.4,24.1,06.8,0000.0,0010.54,0002.12,0001.24
2021-12-11 23:32:00,,0820.3,5.00,0.00,22.5,22.9,00.0,31.4,24.4,06.8,0000.0,0010.51,0002.10,0001.23
2021-12-11 23:33:00,,0820.3,5.01,0.00,22.6,23.0,00.0,31.4,24.5,06.8,0000.0,0010.07,0002.03,0001.23
2021-12-11 23:34:00,,0820.3,5.00,0.00,22.6,22.7,00.0,31.5,24.4,06.7,0000.0,0010.61,0002.02,0001.24
2021-12-11 23:35:00,,0820.3,4.99,0.00,22.5,22.4,00.0,31.5,24.3,06.7,0000.0,0009.32,0002.01,0001.24
2021-12-11 23:36:00,,0820.3,5.01,0.00,22.5,22.2,00.0,31.5,24.2,06.8,0000.0,0008.53,0001.98,0001.23
2021-12-11 23:37:00,,0820.2,4.99,0.00,22.5,22.0,00.0,31.5,24.2,06.8,0000.0,0008.55,0002.02,0001.22
2021-12-11 23:38:00,,0820.3,5.01,0.00,22.4,21.8,00.0,31.5,24.1,06.8,0000.0,0008.50,0002.01,0001.22
2021-12-11 23:39:00,,0820.3,4.99,0.00,22.4,21.7,00.0,31.4,24.1,06.8,0000.0,0007.64,0001.95,0001.22
2021-12-11 23:40:00,,0820.3,5.00,0.00,22.4,21.6,00.0,31.4,24.0,06.8,0000.0,0007.65,0001.93,0001.21
2021-12-11 23:41:00,,0820.2,5.00,0.00,22.4,21.6,00.0,31.4,24.0,06.9,0000.0,0006.74,0001.92,0001.21
2021-12-11 23:42:00,,0820.2,5.00,0.00,22.3,21.5,00.0,31.4,24.0,06.9,0000.0,0007.80,0001.92,0001.21
2021-12-11 23:43:00,,0820.3,5.01,0.00,22.3,21.4,00.0,31.4,24.0,06.9,0000.0,0007.81,0001.89,0001.21
2021-12-11 23:44:00,,0820.3,5.00,0.00,22.3,21.3,00.0,31.4,23.9,06.9,0000.0,0007.69,0001.91,0001.21
2021-12-11 23:45:00,,0820.5,5.00,0.00,22.3,21.3,00.0,31.4,23.9,06.9,0000.0,0005.20,0001.88,0001.21
2021-12-11 23:46:00,,0820.6,5.01,0.00,22.2,21.3,00.0,31.4,23.9,06.9,0000.0,0005.05,0001.87,0001.22
2021-12-11 23:47:00,,0820.6,4.99,0.00,22.2,21.3,00.0,31.3,23.8,07.0,0000.0,0005.78,0001.88,0001.22
2021-12-11 23:48:00,,0820.6,5.01,0.00,22.2,21.3,00.0,31.3,23.8,07.0,0000.0,0006.85,0001.89,0001.22
2021-12-11 23:49:00,,0820.6,5.01,0.00,22.2,21.3,00.0,31.3,23.7,07.0,0000.0,0007.47,0001.85,0001.21
2021-12-11 23:50:00,,0820.5,4.99,0.00,22.2,21.3,00.0,31.3,23.6,07.0,0000.0,0007.38,0001.84,0001.20
2021-12-11 23:51:00,,0820.3,4.99,0.00,22.1,21.3,00.0,31.3,23.6,07.0,0000.0,0007.36,0001.84,0001.20
2021-12-11 23:52:00,,0820.2,5.00,0.00,22.1,21.3,00.0,31.3,23.6,07.0,0000.0,0007.94,0001.89,0001.20
2021-12-11 23:53:00,,0820.2,5.00,0.00,22.1,21.3,00.0,31.2,23.6,06.9,0000.0,0007.12,0001.89,0001.21
2021-12-11 23:54:00,,0820.2,5.00,0.00,22.1,21.2,00.0,31.2,23.5,06.9,0000.0,0006.94,0001.88,0001.22
2021-12-11 23:55:00,,0820.2,4.99,0.00,22.1,21.2,00.0,31.2,23.7,07.0,0000.0,0007.02,0001.89,0001.22
2021-12-11 23:56:00,,0820.2,5.01,0.00,22.1,21.2,00.0,31.2,23.6,07.0,0000.0,0007.07,0001.91,0001.22
2021-12-11 23:57:00,,0820.2,4.99,0.00,22.0,21.2,00.0,31.2,23.6,07.1,0000.0,0007.07,0001.87,0001.21
2021-12-11 23:58:00,,0820.2,5.00,0.00,22.0,21.2,00.0,31.2,23.6,07.1,0000.0,0006.54,0001.87,0001.20
2021-12-11 23:59:00,,0820.3,5.00,0.00,22.0,21.2,00.0,31.2,23.6,07.1,0000.0,0005.27,0001.80,0001.20
